FW1737 Weather Reports


time (UTC)temp
F
wind
direction
speed
knots
gust
knots
rain 1hr
in
rain 24hr
in
rain mn
in
humidity
%
barometer
mb
20260504081523 38 250 14.8 32.2 0.09 0.88 0.28 97 980.3
20260504060120 40 221 4.3 7.8 0.06 0.72 0.12 99 976.6
20260504050106 39 281 3.5 7.0 0.02 0.66 0.06 100 974.9
20260504044550 39 274 3.5 7.0 0.04 0.66 0.06 100 974.5
20260504043056 39 294 2.6 6.1 0.04 0.65 0.05 99 974.3
20260504041548 39 304 1.7 4.3 0.04 0.64 0.04 99 973.7
20260504040047 39 32 0.9 2.6 0.03 0.63 0.03 99 973.6
20260504034544 39 34 0.0 5.2 0.03 0.62 0.02 99 973.8
20260504033042 39 88 8.7 14.8 0.02 0.61 0.01 99 974.2
20260504031538 39 25 7.0 13.9 0.02 0.60 0.00 99 974.7
20260504030034 40 95 8.7 16.5 0.02 0.60 0.00 98 975.0
20260504024531 40 85 12.2 24.3 0.01 0.59 0.59 98 975.9
20260504023028 40 82 10.4 21.7 0.01 0.59 0.59 98 976.9
20260504021527 41 88 11.3 20.0 0.00 0.57 0.57 97 977.7
20260504020022 41 96 11.3 20.0 0.01 0.57 0.57 98 978.5
20260504014538 42 89 9.6 19.1 0.02 0.57 0.57 99 979.1
20260504013016 42 91 11.3 21.7 0.03 0.57 0.57 100 979.7
20260504011513 42 101 13.0 23.5 0.04 0.57 0.57 100 980.8
20260504010010 41 55 10.4 24.3 0.05 0.56 0.56 99 981.3
20260504004507 41 35 10.4 19.1 0.06 0.56 0.56 100 982.1
20260504003005 41 28 11.3 20.0 0.06 0.55 0.55 99 983.0
20260504001604 41 69 13.0 21.7 0.07 0.54 0.54 100 983.6
20260504000101 41 76 12.2 19.1 0.07 0.52 0.52 100 984.3
20260503234557 40 54 8.7 19.1 0.12 0.50 0.50 99 984.7
20260503233101 40 42 8.7 17.4 0.14 0.49 0.49 99 985.8
20260503231550 39 13 10.4 18.2 0.17 0.47 0.47 99 986.7
20260503230048 39 45 6.1 13.0 0.18 0.45 0.45 99 987.7
20260503224546 39 28 11.3 17.4 0.13 0.38 0.38 99 988.6
20260503223043 39 70 8.7 18.2 0.14 0.34 0.34 99 989.5
20260503221547 39 75 9.6 18.2 0.14 0.30 0.30 99 990.7
20260503220035 39 63 7.8 15.6 0.14 0.27 0.27 98 991.6
20260503214533 39 82 10.4 17.4 0.15 0.25 0.25 98 992.3
20260503213032 39 38 7.0 20.0 0.11 0.20 0.20 98 993.5
20260503211525 40 59 11.3 21.7 0.08 0.16 0.16 98 994.1
20260503210039 40 94 9.6 16.5 0.06 0.13 0.13 98 994.3
20260503204525 41 55 12.2 22.6 0.04 0.10 0.10 97 994.4
20260503203020 41 59 12.2 22.6 0.04 0.09 0.09 97 995.0
20260503201521 42 73 9.6 22.6 0.05 0.08 0.08 96 996.0
20260503200017 43 111 7.8 16.5 0.05 0.07 0.07 96 996.2
20260503194515 43 68 6.1 12.2 0.04 0.06 0.06 96 996.5
20260503193011 43 56 7.8 17.4 0.03 0.05 0.05 94 997.5
20260503191507 43 88 7.0 14.8 0.01 0.03 0.03 94 998.6
20260503190005 43 74 10.4 20.0 0.01 0.02 0.02 93 998.4
20260503183107 43 71 7.8 15.6 0.02 0.02 0.02 93 1000.4
20260503181557 43 56 6.1 13.0 0.02 0.02 0.02 91 1000.9
20260503180106 44 57 7.0 13.0 0.01 0.01 0.01 88 1001.8
20260503174550 45 56 5.2 10.4 0.00 0.00 0.00 82 1004.3
20260503173133 45 108 7.0 11.3 0.00 0.00 0.00 81 1005.2
20260503171547 47 104 7.8 13.0 0.00 0.00 0.00 81 1005.9